Regional Weather Roundup
Issued by NWS Charleston, SC

Home | Current Version | Previous Version | Text Only | Print | Product List | Glossary On
Versions: 1 2 3 4 5 6 7 8 9 10 11 12 13 14 15 16 17 18 19 20 21 22 23 24 25 26 27 28 29 30 31 32 33 34 35 36 37 38 39 40 41 42 43 44 45 46 47 48 49 50
000
ASUS42 KCHS 041027
RWRCHS

REGIONAL WEATHER ROUNDUP
NATIONAL WEATHER SERVICE CHARLESTON SC
600 AM EDT TUE AUG 04 2015

NOTE: "FAIR" INDICATES FEW OR NO CLOUDS BELOW 12,000 FEET WITH NO
SIGNIFICANT WEATHER AND/OR OBSTRUCTIONS TO VISIBILITY.

NOT ALL STATIONS ARE QUALITY CONTROLLED BY THE NATIONAL
WEATHER SERVICE. USE DATA WITH CAUTION...ESPECIALLY
DEWPOINT OBSERVATIONS.

SCZ027-030-031-034>040-042>050-041100-
...SOUTHEAST SOUTH CAROLINA...

CITY           SKY/WX    TMP DP  RH WIND       PRES   REMARKS
N CHARLESTON   MOCLDY    77  75  93 NW6       29.89R
WATERFRONT PRK   N/A     78  77  96 VRB2      29.85R
MOUNT PLEASANT CLOUDY    77  77 100 NW5       29.88R
JOHNS ISLAND   CLOUDY    77  77 100 W7        29.89R FOG
PINOPOLIS      NOT AVBL
MONCKS CORNER  CLOUDY    77  73  88 CALM      29.90R
SUMMERVILLE    CLOUDY    73  73 100 CALM      29.91R
BEAUFORT MCAS  CLOUDY    76  75  97 W6        29.91R
BEAUFORT ARPT  CLOUDY    77  77 100 CALM      29.92R
HILTON HEAD IS NOT AVBL
WALTERBORO     FOG       75  73  94 CALM      29.93R VSB 1/2
ALLENDALE      FOG       73  73 100 CALM      29.93R VSB 1/4

...SOUTHERN MIDLANDS AND PEE DEE...

CITY           SKY/WX    TMP DP  RH WIND       PRES   REMARKS
GEORGETOWN     NOT AVBL
KINGSTREE      NOT AVBL
ORANGEBURG     CLOUDY    75  74  96 NE5       29.93R FOG
BARNWELL       FOG       73  73 100 NW5       29.94R VSB 1/4
AIKEN          FAIR      68  68 100 CALM      29.99R
MANNING        RAIN      73  73 100 CALM      29.92R VSB 1
COLUMBIA       PTCLDY    75  71  87 NW5       29.93S
SUMTER         CLOUDY    73  72  94 NE6       29.93R
FLORENCE       PTCLDY    75  73  93 E7        29.94R
MYRTLE BEACH   MOCLDY    75  70  83 E17       29.95S
N MYRTLE BEACH LGT RAIN  77  74  90 S8        29.94F FOG

$$

GAZ063-065-086>088-099>101-113>116-118-119-134>141-150-041100-
...SOUTHEAST GEORGIA...

CITY           SKY/WX    TMP DP  RH WIND       PRES   REMARKS
SAVANNAH ARPT  FOG       75  74  96 W5        29.92R VSB 1/4
HUNTER AAF     FOG       75  75 100 W5        29.90R VSB 3/4
FORT STEWART   NOT AVBL
STATESBORO     FOG       73  32  21 CALM      29.94R VSB 1/4
SYLVANIA       FOG       75  75 100 NW3       29.94R VSB 1/2
CLAXTON        NOT AVBL

...CSRA...CENTRAL AND FAR SOUTHEAST GEORGIA...

CITY           SKY/WX    TMP DP  RH WIND       PRES   REMARKS
THOMSON        CLEAR     72  72 100 CALM      30.01R
AUGUSTA-BUSH   CLEAR     71  70  96 W3        29.94R
AUGUSTA-DANIEL CLEAR     74  71  91 NW6       29.96R
SWAINSBORO     CLOUDY   N/A N/A N/A CALM      29.95R HAZE
VIDALIA        CLOUDY    73  73 100 CALM      29.95R FOG
EASTMAN        FOG       72  72 100 CALM      29.97R VSB 1
HAZLEHURST     PTSUNNY   75  75 100 CALM      29.94R
ALMA           FOG       74  74 100 CALM      29.93R VSB 1/4
WAYCROSS       CLEAR     77  77 100 CALM      29.95R
JESUP          FOG       77  77 100 CALM      29.94R VSB 1/2
BAXLEY         FOG       77  75  94 CALM      29.94R VSB 1/2
BRUNSWICK      CLOUDY    77  75  94 SW7       29.94R
SAINT SIMONS   CLOUDY    78  76  93 SW13      29.92S

$$

SCZ027-028-034-036>038-045-046-048>050-GAZ119-141-041100-
...LAKE AND SUPPLEMENTAL COASTAL OBSERVATIONS...

STATION/POSITION TIME  TEMP    WIND        PRES    WAVE   SWELL
                       AIR SEA DIR/SP/G            HT/PER HT/PER/DIR
                 (UTC) (F)     (DEG/KT/KT) (MB)    (FT/S) (FT/S/D)
UPR LAKE MARION  NOT AVBL
WINYAH BAY       0945   75     180/  9     1011.0F
LAKE MURRAY      0900   75      20/  1/  3 1013.5R
ACE BASIN NERRS  NOT AVBL
FORT PULASKI     1000   76 85  280/  9/ 10 1013.4R
SAPELO ISLAND    1000   79     250/  5     1013.0S

$$

ANZ835-935-AMZ111-154-330-350-352-354-370-450-454-472-041100-
...C-MAN AND BUOY OBSERVATIONS...

STATION/POSITION TIME  TEMP    WIND        PRES    WAVE   SWELL
                       AIR SEA DIR/SP/G            HT/PER HT/PER/DIR
                 (UTC) (F)     (DEG/KT/KT) (MB)    (FT/S) (FT/S/D)
BUOY 41004       0950   80 83  190/ 19/ 23 1011.3R   8/ 6   2/11
BUOY 41008       0950   80 83  260/ 10/ 14 1012.8S   4/ 7   3/140/ 7
FOLLY BEACH CMAN 1000   78     270/  4/  6 1011.9R
CAPERS NEARSHORE 0908   81     200/ 16/ 21 1010.9F
FRIPP NEARSHORE  0900   80     280/ 10/ 14 1011.4R


STATION/POSITION TIME  TEMP    WIND        PRES    WAVE   SWELL
                       AIR SEA DIR/SP/G            HT/PER HT/PER/DIR
                 (UTC) (F)     (DEG/KT/KT) (MB)    (FT/S) (FT/S/D)
5E ST. MARYS GA  0921      82                N/A     3/ 5   2/100/11
FRYING PAN BUOY  0950   83 82  160/ 19/ 23 1014.8S   6/ 7   2/200/11
BUOY 41025       0950   83 84  200/ 17/ 21 1016.0R   4/ 5   2/160/ 8
CAPE LOOKOUT NC  1000   80     200/ 10/ 14 1015.5R
BUOY 41002       0950   81 81  210/  8/ 10 1018.4R   5/ 7   5/210/ 7
BUOY 41010       0920   83 84  200/ 14/ 16 1016.7R
ST AUGUSTINE FL  1000   75 77  210/  9/ 11 1015.7R


$$


USA.gov is the U.S. government's official web portal to all federal, state and local government web resources and services.